CW9192 Weather Reports


time (UTC)temp
C
wind
direction
speed
KPH
gust
KPH
rain 1hr
cm
rain 24hr
cm
rain mn
cm
humidity
%
barometer
mb
20260510051559 8 151 4.8 12.9 0.00 0.00 0.00 85 1008.6
20260510051100 8 143 1.6 8.0 0.00 0.00 0.00 85 1008.6
20260510050559 8 129 1.6 9.7 0.00 0.00 0.00 85 1008.6
20260510045601 8 200 3.2 11.3 0.00 0.00 0.00 84 1008.5
20260510045059 9 160 4.8 11.3 0.00 0.00 0.00 84 1008.4
20260510044602 9 172 3.2 12.9 0.00 0.00 0.00 83 1008.3
20260510044059 9 121 4.8 14.5 0.00 0.00 0.00 83 1008.3
20260510043559 9 214 4.8 14.5 0.00 0.00 0.00 83 1008.4
20260510043056 9 94 4.8 14.5 0.00 0.00 0.00 83 1008.3
20260510042559 9 284 3.2 22.5 0.00 0.00 0.00 83 1008.4
20260510042058 10 256 8.0 32.2 0.00 0.00 0.00 83 1008.5
20260510041555 10 180 12.9 32.2 0.00 0.00 0.00 83 1008.5
20260510041058 10 213 8.0 29.0 0.00 0.00 0.00 83 1008.4
20260510040559 10 101 4.8 19.3 0.00 0.00 0.00 83 1008.2
20260510040057 10 211 6.4 17.7 0.00 0.00 0.00 82 1008.1
20260510035558 10 149 1.6 20.9 0.00 0.00 0.00 82 1007.7
20260510035058 10 211 8.0 20.9 0.00 0.00 0.00 82 1007.6
20260510034617 10 123 4.8 12.9 0.00 0.00 0.00 82 1007.5
20260510034058 10 95 4.8 17.7 0.00 0.00 0.00 82 1007.6
20260510033558 10 188 3.2 17.7 0.00 0.00 0.00 82 1007.7
20260510033100 10 137 4.8 17.7 0.00 0.00 0.00 82 1007.8
20260510032558 10 207 1.6 16.1 0.00 0.00 0.00 83 1007.7
20260510032058 10 93 4.8 16.1 0.00 0.00 0.00 83 1007.7
20260510031600 10 119 3.2 16.1 0.00 0.00 0.00 83 1007.8
20260510031058 10 132 1.6 16.1 0.00 0.00 0.00 83 1007.8
20260510030559 10 119 6.4 16.1 0.00 0.00 0.00 83 1007.4
20260510030106 10 215 3.2 16.1 0.00 0.00 0.00 83 1007.2
20260510025558 10 150 6.4 16.1 0.00 0.00 0.00 83 1007.2
20260510025058 10 218 6.4 16.1 0.00 0.00 0.00 83 1007.3
20260510024559 10 130 4.8 14.5 0.00 0.00 0.00 83 1007.5
20260510024100 10 172 1.6 11.3 0.00 0.00 0.00 83 1007.5
20260510023559 10 171 3.2 11.3 0.00 0.00 0.00 83 1007.5
20260510023058 10 204 3.2 12.9 0.00 0.00 0.00 83 1007.4
20260510022603 10 153 3.2 12.9 0.00 0.00 0.00 83 1007.3
20260510022100 10 88 6.4 12.9 0.00 0.00 0.00 83 1007.4
20260510021606 10 102 4.8 14.5 0.00 0.00 0.00 83 1007.5
20260510021058 10 130 1.6 14.5 0.00 0.00 0.00 84 1007.4
20260510020558 10 199 3.2 12.9 0.00 0.00 0.00 83 1007.5
20260510020056 10 119 1.6 16.1 0.00 0.00 0.00 83 1007.7
20260510015559 10 138 3.2 16.1 0.00 0.00 0.00 83 1007.5
20260510015058 10 155 3.2 12.9 0.00 0.00 0.00 83 1007.6
20260510014607 10 103 3.2 9.7 0.00 0.00 0.00 84 1007.7
20260510014058 10 142 1.6 12.9 0.00 0.00 0.00 84 1007.7
20260510013600 10 0 4.8 12.9 0.00 0.00 0.00 84 1007.6
20260510013123 9 132 3.2 12.9 0.00 0.00 0.00 84 1007.7
20260510012558 9 145 4.8 9.7 0.00 0.00 0.00 84 1007.5
20260510012058 9 171 1.6 14.5 0.00 0.00 0.00 84 1007.7
20260510011559 9 211 1.6 14.5 0.00 0.00 0.00 85 1007.7
20260510011058 9 81 3.2 11.3 0.00 0.00 0.00 85 1007.6
20260510010558 9 112 1.6 6.4 0.00 0.00 0.00 85 1007.4
20260510010107 9 101 1.6 12.9 0.00 0.00 0.00 85 1007.4
20260510005558 9 158 3.2 12.9 0.00 0.00 0.00 85 1007.3
20260510005100 9 180 0.0 14.5 0.00 0.00 0.00 85 1007.2
20260510004557 9 171 3.2 14.5 0.00 0.00 0.00 85 1007.1
20260510004058 8 124 1.6 9.7 0.00 0.00 0.00 85 1007.2
20260510003559 8 123 1.6 11.3 0.00 0.00 0.00 86 1007.1
20260510003107 8 205 3.2 11.3 0.00 0.00 0.00 86 1007.2
20260510002601 8 129 0.0 4.8 0.00 0.00 0.00 85 1007.1
20260510002100 8 0 0.0 6.4 0.00 0.00 0.00 85 1007.1
20260510001558 8 16 0.0 6.4 0.00 0.00 0.00 85 1007.2
20260510001058 8 0 1.6 6.4 0.00 0.00 0.00 85 1007.2
20260510000559 8 134 0.0 6.4 0.00 0.00 0.00 84 1007.0
20260510000126 9 0 1.6 6.4 0.00 0.00 0.00 84 1007.2
20260509235558 9 136 3.2 11.3 0.00 0.00 0.00 83 1007.1
20260509235058 9 0 3.2 11.3 0.00 0.00 0.00 84 1007.2
20260509234556 9 153 3.2 11.3 0.00 0.00 0.00 83 1007.2
20260509234059 9 148 3.2 11.3 0.00 0.00 0.00 83 1007.2
20260509233558 9 126 3.2 11.3 0.00 0.00 0.00 83 1007.4
20260509233056 9 107 1.6 6.4 0.00 0.00 0.00 84 1007.6
20260509232559 9 0 1.6 8.0 0.00 0.00 0.00 84 1007.5
20260509232059 9 148 1.6 11.3 0.00 0.00 0.00 83 1007.4
20260509231616 9 0 3.2 11.3 0.00 0.00 0.00 83 1007.4
20260509231059 9 147 1.6 9.7 0.00 0.00 0.00 84 1007.2
20260509230558 9 186 3.2 12.9 0.00 0.00 0.00 84 1007.2
20260509230108 9 101 3.2 12.9 0.00 0.00 0.00 84 1007.2
20260509225600 9 111 4.8 11.3 0.00 0.00 0.00 84 1007.1
20260509225058 9 142 3.2 12.9 0.00 0.00 0.00 84 1007.3
20260509224600 9 134 6.4 12.9 0.00 0.00 0.00 84 1007.2
20260509224058 9 89 3.2 12.9 0.00 0.00 0.00 84 1007.1
20260509223559 9 149 3.2 12.9 0.00 0.00 0.00 84 1007.2
20260509223111 9 148 4.8 12.9 0.00 0.00 0.00 84 1007.2
20260509222557 9 132 3.2 14.5 0.00 0.00 0.00 85 1007.2
20260509222058 9 166 3.2 14.5 0.00 0.00 0.00 84 1007.3
20260509221619 9 197 3.2 12.9 0.00 0.00 0.00 84 1007.3
20260509221059 9 215 1.6 12.9 0.00 0.00 0.00 85 1007.3
20260509220558 8 47 4.8 12.9 0.00 0.00 0.00 84 1007.2
20260509220100 8 92 1.6 14.5 0.00 0.00 0.00 85 1007.2
20260509215558 8 140 3.2 14.5 0.00 0.00 0.00 85 1007.2
20260509215103 8 157 6.4 14.5 0.00 0.00 0.00 85 1007.1
20260509214603 8 111 4.8 12.9 0.00 0.00 0.00 85 1007.2
20260509214058 8 128 4.8 9.7 0.00 0.00 0.00 85 1007.3
20260509213558 8 145 3.2 12.9 0.00 0.00 0.00 86 1007.5
20260509213100 8 122 3.2 12.9 0.00 0.00 0.00 86 1007.6
20260509212559 8 105 3.2 9.7 0.00 0.00 0.00 86 1007.5
20260509212058 8 121 3.2 11.3 0.00 0.00 0.00 86 1007.6
20260509211604 8 92 3.2 11.3 0.00 0.00 0.00 86 1007.7
20260509211058 8 113 3.2 9.7 0.00 0.00 0.00 86 1007.9
20260509210558 8 0 3.2 9.7 0.00 0.00 0.00 86 1007.8
20260509210100 8 101 4.8 9.7 0.00 0.00 0.00 85 1007.7
20260509205558 8 94 3.2 9.7 0.00 0.00 0.00 85 1007.7
20260509205058 8 98 3.2 9.7 0.00 0.00 0.00 85 1007.7
20260509204603 8 101 3.2 8.0 0.00 0.00 0.00 84 1007.7
20260509204058 8 0 1.6 11.3 0.00 0.00 0.00 84 1007.8
20260509203601 8 200 3.2 12.9 0.00 0.00 0.00 83 1007.8
20260509203055 8 133 3.2 12.9 0.00 0.00 0.00 83 1007.8
20260509202558 8 109 6.4 16.1 0.00 0.00 0.00 82 1007.9
20260509202101 8 87 6.4 16.1 0.00 0.00 0.00 82 1007.9
20260509201556 8 184 3.2 11.3 0.00 0.00 0.00 81 1008.0
20260509201102 8 134 1.6 11.3 0.00 0.00 0.00 81 1008.0
20260509200559 8 117 4.8 12.9 0.00 0.00 0.00 81 1008.1
20260509200110 8 143 4.8 16.1 0.00 0.00 0.00 81 1008.1
20260509195600 8 138 4.8 16.1 0.00 0.00 0.00 80 1008.0
20260509195101 8 111 4.8 14.5 0.00 0.00 0.00 80 1008.1
20260509194558 8 134 1.6 11.3 0.00 0.00 0.00 79 1008.2
20260509194116 8 92 4.8 12.9 0.00 0.00 0.00 79 1008.2
20260509193558 8 161 4.8 12.9 0.00 0.00 0.00 79 1008.2
20260509193105 8 90 4.8 12.9 0.00 0.00 0.00 79 1008.3
20260509192557 8 104 1.6 12.9 0.00 0.00 0.00 80 1008.3
20260509192100 8 96 3.2 12.9 0.00 0.00 0.00 80 1008.3
20260509191604 8 111 4.8 12.9 0.00 0.00 0.00 79 1008.4
20260509191058 8 118 4.8 14.5 0.00 0.00 0.00 80 1008.4
20260509190558 8 176 8.0 14.5 0.00 0.00 0.00 80 1008.4
20260509190059 8 114 4.8 12.9 0.00 0.00 0.00 80 1008.5
20260509185558 8 164 6.4 16.1 0.00 0.00 0.00 80 1008.5
20260509185058 8 101 6.4 16.1 0.00 0.00 0.00 80 1008.4
20260509184558 8 103 4.8 16.1 0.00 0.00 0.00 80 1008.5
20260509184058 8 145 9.7 17.7 0.00 0.00 0.00 78 1008.6
20260509183558 8 103 6.4 17.7 0.00 0.00 0.00 76 1008.6
20260509183105 8 97 9.7 17.7 0.00 0.00 0.00 75 1008.6
20260509182557 9 118 4.8 12.9 0.00 0.00 0.00 75 1008.6
20260509182057 9 148 3.2 12.9 0.00 0.00 0.00 74 1008.7
20260509181555 9 107 4.8 19.3 0.00 0.00 0.00 74 1008.7
20260509181058 9 167 6.4 19.3 0.00 0.00 0.00 73 1008.7
20260509180557 9 198 1.6 9.7 0.00 0.00 0.00 73 1008.6
20260509180056 9 240 0.0 8.0 0.00 0.00 0.00 72 1008.6
20260509175558 9 117 1.6 12.9 0.00 0.00 0.00 72 1008.7
20260509175058 9 169 4.8 12.9 0.00 0.00 0.00 72 1008.7
20260509174600 9 119 4.8 12.9 0.00 0.00 0.00 72 1008.8
20260509174057 9 115 3.2 9.7 0.00 0.00 0.00 72 1008.9
20260509173557 9 90 1.6 16.1 0.00 0.00 0.00 72 1009.0
20260509173107 9 171 4.8 16.1 0.00 0.00 0.00 71 1009.0
20260509172558 9 113 6.4 17.7 0.00 0.00 0.00 71 1008.9
20260509172058 9 165 4.8 17.7 0.00 0.00 0.00 71 1009.0
20260509171557 9 161 8.0 17.7 0.00 0.00 0.00 71 1008.9
20260509171057 9 131 8.0 16.1 0.00 0.00 0.00 70 1008.9
20260509170557 10 150 6.4 16.1 0.00 0.00 0.00 69 1009.1
20260509170100 10 66 4.8 17.7 0.00 0.00 0.00 69 1009.2
20260509165558 10 105 8.0 17.7 0.00 0.00 0.00 68 1009.2
20260509165057 10 120 3.2 11.3 0.00 0.00 0.00 66 1009.2
20260509164556 11 186 3.2 19.3 0.00 0.00 0.00 66 1009.2
20260509164057 10 189 4.8 19.3 0.00 0.00 0.00 66 1009.2
20260509163557 11 114 6.4 19.3 0.00 0.00 0.00 65 1009.2
20260509163101 11 98 6.4 16.1 0.00 0.00 0.00 67 1009.3
20260509162557 10 92 4.8 16.1 0.00 0.00 0.00 66 1009.3
20260509162058 10 242 6.4 14.5 0.00 0.00 0.00 67 1009.4
20260509161603 10 167 6.4 14.5 0.00 0.00 0.00 68 1009.5
20260509161058 10 107 1.6 14.5 0.00 0.00 0.00 70 1009.6
20260509160558 10 153 6.4 14.5 0.00 0.00 0.00 69 1009.7
20260509160056 10 155 1.6 17.7 0.00 0.00 0.00 68 1009.8
20260509155557 9 123 6.4 17.7 0.00 0.00 0.00 69 1009.8
20260509155057 10 112 4.8 14.5 0.00 0.00 0.00 68 1009.8
20260509154556 10 185 3.2 14.5 0.00 0.00 0.00 68 1009.8
20260509154058 10 94 8.0 16.1 0.00 0.00 0.00 67 1009.8
20260509153557 10 207 3.2 16.1 0.00 0.00 0.00 68 1010.0
20260509153058 10 118 6.4 16.1 0.00 0.00 0.00 68 1009.9
20260509152557 9 156 6.4 16.1 0.00 0.00 0.00 69 1010.0
20260509152058 8 138 6.4 14.5 0.00 0.00 0.00 69 1010.1
20260509151559 8 140 0.0 9.7 0.00 0.00 0.00 71 1010.0
20260509151057 8 139 3.2 12.9 0.00 0.00 0.00 71 1010.2
20260509150558 8 173 3.2 12.9 0.00 0.00 0.00 71 1010.1
20260509145557 8 90 3.2 24.1 0.00 0.00 0.00 69 1010.1
20260509145058 8 82 4.8 24.1 0.00 0.00 0.00 68 1010.0
20260509144558 8 98 8.0 20.9 0.00 0.00 0.00 67 1010.0
20260509144057 9 126 6.4 25.7 0.00 0.00 0.00 66 1010.0
20260509143557 9 60 4.8 25.7 0.00 0.00 0.00 67 1010.1
20260509143102 9 78 9.7 22.5 0.00 0.00 0.00 66 1010.0
20260509142557 8 113 14.5 22.5 0.00 0.00 0.00 65 1010.1
20260509142057 9 107 6.4 17.7 0.00 0.00 0.00 64 1010.1
20260509141600 9 103 6.4 17.7 0.00 0.00 0.00 64 1010.2
20260509141101 9 128 6.4 20.9 0.00 0.00 0.00 64 1010.2
20260509140600 9 150 6.4 20.9 0.00 0.00 0.00 63 1010.2
20260509140106 9 96 4.8 16.1 0.00 0.00 0.00 61 1010.2
20260509135558 9 192 3.2 20.9 0.00 0.00 0.00 62 1010.3
20260509135058 9 115 8.0 20.9 0.00 0.00 0.00 61 1010.3
20260509134558 9 117 12.9 20.9 0.00 0.00 0.00 60 1010.3
20260509134058 8 98 6.4 22.5 0.00 0.00 0.00 59 1010.4
20260509133559 8 103 12.9 22.5 0.00 0.00 0.00 59 1010.5
20260509133057 8 154 8.0 22.5 0.00 0.00 0.00 56 1010.4
20260509132613 9 111 4.8 14.5 0.00 0.00 0.00 55 1010.4
20260509132058 9 141 4.8 16.1 0.00 0.00 0.00 54 1010.3
20260509131558 8 129 3.2 16.1 0.00 0.00 0.00 54 1010.3
20260509131057 8 118 8.0 19.3 0.00 0.00 0.00 52 1010.2
20260509130557 8 136 6.4 19.3 0.00 0.00 0.00 52 1010.3
20260509130057 8 99 11.3 17.7 0.00 0.00 0.00 51 1010.3
20260509125557 8 109 3.2 17.7 0.00 0.00 0.00 52 1010.4
20260509125058 8 85 9.7 19.3 0.00 0.00 0.00 52 1010.5
20260509124556 8 107 8.0 19.3 0.00 0.00 0.00 53 1010.6
20260509124057 8 144 3.2 11.3 0.00 0.00 0.00 54 1010.7
20260509123600 8 113 3.2 17.7 0.00 0.00 0.00 55 1010.7
20260509123118 7 103 4.8 17.7 0.00 0.00 0.00 55 1010.6
20260509122557 7 140 6.4 17.7 0.00 0.00 0.00 54 1010.6
20260509122056 7 119 4.8 19.3 0.00 0.00 0.00 55 1010.8
20260509121600 7 74 8.0 19.3 0.00 0.00 0.00 58 1010.8
20260509121057 6 129 4.8 16.1 0.00 0.00 0.00 60 1010.9
20260509120558 6 74 1.6 9.7 0.00 0.00 0.00 65 1011.0
20260509120059 5 101 0.0 9.7 0.00 0.00 0.00 67 1011.0
20260509115557 5 97 3.2 8.0 0.00 0.00 0.00 71 1011.0
20260509115057 3 103 1.6 6.4 0.00 0.00 0.00 78 1010.8
20260509114557 3 5 0.0 6.4 0.00 0.00 0.00 79 1010.8
20260509114057 2 0 0.0 0.0 0.00 0.00 0.00 81 1010.9
20260509113559 2 0 0.0 0.0 0.00 0.00 0.00 82 1011.0
20260509113058 1 0 0.0 0.0 0.00 0.00 0.00 83 1010.9
20260509112557 1 0 0.0 0.0 0.00 0.00 0.00 84 1011.0
20260509112057 1 0 0.0 0.0 0.00 0.00 0.00 85 1011.1
20260509111555 1 0 0.0 1.6 0.00 0.00 0.00 86 1011.0
20260509111057 0 0 0.0 1.6 0.00 0.00 0.00 86 1011.0
20260509110556 0 0 0.0 1.6 0.00 0.00 0.00 87 1011.1
20260509110057 0 0 0.0 1.6 0.00 0.00 0.00 88 1011.0
20260509105553 0 0 0.0 1.6 0.00 0.00 0.00 88 1011.0
20260509105055 0 0 0.0 0.0 0.00 0.00 0.00 88 1011.1
20260509104557 0 0 0.0 0.0 0.00 0.00 0.00 88 1011.0
20260509104054 -1 0 0.0 1.6 0.00 0.00 0.00 88 1010.9
20260509103558 -1 0 0.0 3.2 0.00 0.00 0.00 88 1010.9
20260509103103 -1 0 0.0 3.2 0.00 0.00 0.00 88 1010.9
20260509102554 -1 0 0.0 3.2 0.00 0.00 0.00 88 1010.9
20260509102120 -1 0 0.0 1.6 0.00 0.00 0.00 88 1010.8
20260509101603 -1 0 0.0 1.6 0.00 0.00 0.00 88 1010.8
20260509101059 -1 0 0.0 1.6 0.00 0.00 0.00 88 1010.8
20260509100559 -2 0 0.0 1.6 0.00 0.00 0.00 88 1010.8
20260509100059 -1 0 0.0 3.2 0.00 0.00 0.00 88 1010.8
20260509095559 -1 0 0.0 3.2 0.00 0.00 0.00 88 1010.9
20260509095059 -2 0 0.0 1.6 0.00 0.00 0.00 88 1010.9
20260509094558 -2 0 0.0 0.0 0.00 0.00 0.00 88 1010.9
20260509094058 -2 0 0.0 0.0 0.00 0.00 0.00 88 1010.9
20260509093558 -2 0 0.0 3.2 0.00 0.00 0.00 88 1011.0
20260509093057 -2 0 0.0 4.8 0.00 0.00 0.00 88 1011.0
20260509092559 -2 127 1.6 4.8 0.00 0.00 0.00 88 1011.0
20260509092103 -1 127 0.0 4.8 0.00 0.00 0.00 88 1011.1
20260509091557 -1 128 0.0 4.8 0.00 0.00 0.00 88 1011.1
20260509091059 -1 127 0.0 0.0 0.00 0.00 0.00 88 1011.1
20260509090602 -1 0 0.0 0.0 0.00 0.00 0.00 88 1011.2
20260509090101 -2 0 0.0 0.0 0.00 0.00 0.00 88 1011.1
20260509085559 -1 0 0.0 0.0 0.00 0.00 0.00 88 1011.1
20260509085059 -1 0 0.0 0.0 0.00 0.00 0.00 88 1011.2
20260509084557 -1 0 0.0 0.0 0.00 0.00 0.00 88 1011.1
20260509084101 -1 0 0.0 0.0 0.00 0.00 0.00 88 1011.3
20260509083558 -1 0 0.0 0.0 0.00 0.00 0.00 88 1011.1
20260509083102 -1 0 0.0 0.0 0.00 0.00 0.00 88 1011.2
20260509082559 -1 0 0.0 0.0 0.00 0.00 0.00 87 1011.2
20260509082100 -1 0 0.0 0.0 0.00 0.00 0.00 87 1011.2
20260509081600 -1 0 0.0 0.0 0.00 0.00 0.00 87 1011.2
20260509081100 -1 0 0.0 0.0 0.00 0.00 0.00 87 1011.3
20260509080559 -1 0 0.0 0.0 0.00 0.00 0.00 87 1011.1
20260509080100 -1 0 0.0 0.0 0.00 0.00 0.00 87 1011.1
20260509075558 -1 0 0.0 0.0 0.00 0.00 0.00 87 1011.1
20260509075059 -1 0 0.0 0.0 0.00 0.00 0.00 87 1011.2
20260509074610 -1 0 0.0 0.0 0.00 0.00 0.00 87 1011.3
20260509074059 -1 0 0.0 0.0 0.00 0.00 0.00 86 1011.3
20260509073602 -1 0 0.0 0.0 0.00 0.00 0.00 87 1011.3
20260509073059 -1 0 0.0 0.0 0.00 0.00 0.00 86 1011.3
20260509072601 -1 0 0.0 0.0 0.00 0.00 0.00 86 1011.4
20260509072058 -1 0 0.0 0.0 0.00 0.00 0.00 86 1011.2
20260509071612 -1 0 0.0 0.0 0.00 0.00 0.00 86 1011.2
20260509071059 -1 0 0.0 0.0 0.00 0.00 0.00 86 1011.2
20260509070559 -1 0 0.0 1.6 0.00 0.00 0.00 86 1011.3
20260509070058 -1 0 0.0 1.6 0.00 0.00 0.00 86 1011.4
20260509065558 -1 0 0.0 1.6 0.00 0.00 0.00 85 1011.3
20260509065058 -1 0 0.0 1.6 0.00 0.00 0.00 85 1011.3
20260509064601 -1 129 0.0 1.6 0.00 0.00 0.00 85 1011.4
20260509064059 -1 0 0.0 3.2 0.00 0.00 0.00 85 1011.4
20260509063603 -1 0 0.0 3.2 0.00 0.00 0.00 85 1011.6
20260509063059 -1 129 0.0 3.2 0.00 0.00 0.00 85 1011.6
20260509062558 -1 0 0.0 1.6 0.00 0.00 0.00 85 1011.6
20260509062058 -1 0 0.0 1.6 0.00 0.00 0.00 85 1011.7
20260509061603 -1 0 0.0 1.6 0.00 0.00 0.00 84 1011.7
20260509061059 -1 0 0.0 3.2 0.00 0.00 0.00 84 1011.6
20260509060559 -1 0 0.0 3.2 0.00 0.00 0.00 84 1011.7
20260509055559 -1 129 0.0 3.2 0.00 0.00 0.00 84 1011.9
20260509055101 -1 0 0.0 3.2 0.00 0.00 0.00 84 1011.9
20260509054609 -1 0 0.0 3.2 0.00 0.00 0.00 83 1012.0
20260509054059 -1 0 0.0 3.2 0.00 0.00 0.00 83 1012.0
20260509053558 -1 0 0.0 3.2 0.00 0.00 0.00 83 1012.0
20260509053105 -1 129 1.6 3.2 0.00 0.00 0.00 83 1012.0
20260509052559 -1 129 1.6 3.2 0.00 0.00 0.00 83 1012.1
20260509052058 -1 129 0.0 3.2 0.00 0.00 0.00 82 1012.0